Hollywood, FL

7:54 PM EDT on May 22, 2017 (GMT -0400)
North Perry

Weather History for KHWO - December, 2012

Change the Weather History Date:

Saturday, December 1, 2012

  Actual Average (KFLL) Record (KFLL)
Temperature  
Mean Temperature 75 °F -  
Max Temperature 79 °F 78 °F 87 °F (1934)
Min Temperature 71 °F 63 °F 39 °F (1956)
Cooling Degree Days 10    
Growing Degree Days 25 (Base 50)    
Moisture  
Dew Point 61 °F    
Average Humidity 65    
Maximum Humidity 75    
Minimum Humidity 50    
Precipitation  
Precipitation 0.00 in - - ()
Sea Level Pressure  
Sea Level Pressure 30.17 in    
Wind  
Wind Speed 12 mph (ENE)    
Max Wind Speed 15 mph    
Max Gust Speed 24 mph    
Visibility 10 miles    
Events      
Averages and records for this station are not official NWS values.
T = Trace of Precipitation, MM = Missing Value Source: NWS Daily Summary

Daily Weather History Graph

Daily Weather History Graph

Search for Another Location

Airport or City:

Trip Planner

Search our weather history database for the weather conditions in past years. The results will help you decide how hot, cold, wet, or windy it might be!

Date:

Astronomy

Dec. 01, 2012 Rise Set
Actual Time 6:51 AM EST 5:29 PM EST
Civil Twilight 6:26 AM EST 5:53 PM EST
Nautical Twilight 5:57 AM EST 6:22 PM EST
Astronomical Twilight 5:29 AM EST 6:50 PM EST
Moon 8:12 PM EST (12/1) 9:06 AM EST (12/1)
Length of Visible Light 11h 27m
Length of Day
10h 37m
Waning Gibbous, 92% of the Moon is Illuminated
Dec 1
Waning Gibbous
Dec 6
Last Quarter
Dec 13
New
Dec 20
First Quarter
Dec 28
Full

Hourly Weather History & Observations

Time (EST) Temp. Dew Point Humidity Pressure Visibility Wind Dir Wind Speed Gust Speed Precip Events Conditions
12:53 AM 72.0 °F 63.0 °F 73% 30.16 in 9.0 mi ENE 12.7 mph - N/A   Scattered Clouds
1:53 AM 72.0 °F 63.0 °F 73% 30.16 in 9.0 mi NE 10.4 mph - N/A   Mostly Cloudy
2:53 AM 71.1 °F 62.1 °F 73% 30.14 in 9.0 mi ENE 9.2 mph - N/A   Scattered Clouds
3:53 AM 71.1 °F 63.0 °F 75% 30.14 in 10.0 mi NE 8.1 mph - N/A   Mostly Cloudy
4:53 AM 72.0 °F 63.0 °F 73% 30.14 in 9.0 mi NE 10.4 mph - N/A   Mostly Cloudy
7:53 AM 72.0 °F 62.1 °F 71% 30.18 in 9.0 mi NE 8.1 mph - N/A   Partly Cloudy
8:53 AM 75.9 °F 62.1 °F 62% 30.19 in 9.0 mi ENE 12.7 mph - N/A   Clear
9:53 AM 77.0 °F 60.1 °F 56% 30.20 in 10.0 mi ENE 13.8 mph 24.2 mph N/A   Partly Cloudy
11:53 AM 78.1 °F 59.0 °F 52% 30.20 in 10.0 mi East 15.0 mph 21.9 mph N/A   Partly Cloudy
1:53 PM 79.0 °F 59.0 °F 50% 30.17 in 10.0 mi NE 15.0 mph 23.0 mph N/A   Partly Cloudy
2:53 PM 78.1 °F 60.1 °F 54% 30.16 in 10.0 mi NE 15.0 mph - N/A   Partly Cloudy
4:53 PM 75.0 °F 59.0 °F 57% 30.16 in 10.0 mi NE 15.0 mph 21.9 mph N/A   Partly Cloudy
5:53 PM 73.0 °F 57.9 °F 59% 30.16 in 10.0 mi ENE 13.8 mph - N/A   Clear
6:53 PM 73.0 °F 59.0 °F 61% 30.17 in 10.0 mi NE 9.2 mph - N/A   Partly Cloudy
7:53 PM 72.0 °F 60.1 °F 66% 30.19 in 10.0 mi ENE 9.2 mph - N/A   Clear
8:53 PM 72.0 °F 61.0 °F 68% 30.19 in 10.0 mi ENE 10.4 mph - N/A   Clear
9:53 PM 72.0 °F 62.1 °F 71% 30.19 in 10.0 mi ENE 10.4 mph - N/A   Clear
10:53 PM 73.0 °F 62.1 °F 68% 30.19 in 10.0 mi ENE 11.5 mph - N/A   Partly Cloudy
11:53 PM 73.0 °F 63.0 °F 71% 30.19 in 10.0 mi ENE 12.7 mph - N/A   Scattered Clouds